{"data":{"norad_id":65875,"intl_designator":"2025-223X","name":"STARLINK-34688","alt_names":[],"object_type":"PAYLOAD","status":"ACTIVE","operator":null,"country":"US","launch_date":"2025-10-03","launch_site_code":"AFWTR","launch_vehicle":null,"mission":null,"orbit_class":"UNKNOWN","rcs_meters":null,"size_class":null,"mass_kg":null,"dimensions":null,"purposes":["comms"],"wikipedia_slug":null,"has_3d_model":false,"image_url":null,"decayed_at":null,"tle_current":{"epoch":"2026-05-25T03:23:56.109696Z","epoch_age_seconds":52986,"freshness":"FRESH","line1":"1 65875U 25223X   26145.14162164  .00030067  00000+0  89766-3 0  9992","line2":"2 65875  53.1603 298.8594 0001172 102.3052 257.8082 15.34392581 35911","mean_motion":15.34392581,"eccentricity":0.0001172,"inclination_deg":53.1603,"raan_deg":298.8594,"arg_perigee_deg":102.3052,"mean_anomaly_deg":257.8082,"bstar":0.00089766,"rev_number":3591,"period_min":93.848211848204,"perigee_km":461.92354206692,"apogee_km":463.52704018796,"semimajor_km":6840.8622911274,"source":"CELESTRAK","updated_at":"2026-05-25T13:38:20.976838Z"}}}